ONEWEB-0550, 56052

Orbit data source: Space-Track

ONEWEB-0550, 56052 is a payload satellite owned by One Web (NAA) (UK) in LEO that was launched on Sun, 26 Mar 2023 UTC via a LVM3 launch vehicle from the Sirharikota (SRI). Payload-class satellites include a variety of spacecraft equipped with specific instruments for various scientific and technological missions. These include communications satellites like Starlink; space stations such as the ISS; scientific satellites like the Hubble; Earth observation satellites from companies like Planet Labs, Umbra, and HawkEye 360; GPS; miniature CubeSats for education and research; and military/defense satellites.

Loading next visibility...
Identifier
56052, 2023-043G
Orbit
LEO
Country
Flag of UKUK
Related business
Manufacturer
One Web
Mission
Operational Commercial Communications
Bus & Motor
ARROW, Unknown motor
Mass
148 kg wet, ~140 kg dry
Launch date (UTC)
2023-03-26 (3 years ago)
Launch vehicle
LVM3
Launch site
Sirharikota (SRI)
Object type
Payload
Rocket body
Debris
Shape & HBR
Trap Box + 2 Pan, 6.7 m
Radar Cross Section
3.464 m², Large (>1 m²)

Expand to show TLE details & history
Last TLE update: 2 days ago

TLE from 2 days ago
0 ONEWEB-0550
1 56052U 23043G   26171.48374286 -.00000071  00000-0 -20388-3 0  9993
2 56052  87.9253 243.3224 0001872  94.2436 265.8912 13.21825544158664
Epoch: 2026-06-20T11:36Z
TLE epoch observation values (Epoch: 2026-06-20T11:36:35.383Z)
Latitude
0.00001°
Longitude
160.47726°
Altitude
1,180.761 km
Speed
7.263 km/s
True Right ascension
16h 13m 17s
True Declination
0° 00' 00"
Sunlit
Object was in full shadow at epoch
Visualization orbit readout
Latitude
Unknown
Longitude
Unknown
Altitude
Unknown
Speed
Unknown
Apparent Right ascension
Unknown
Apparent Declination
Unknown
Sunlit
N/A
Visualization observer readout
Local Sidereal Time
00:39:31
Azimuth
Unknown
Elevation
Unknown
Doppler factor
Unknown
Orbital elements
Apogee altitude
1,176.272 km
Perigee altitude
1,173.444 km
Semi-major axis
7,552.995 km
Eccentricity
0.00019
Inclination
87.9253°
RAAN
243.3224°
Arg. of periapsis
94.2436°
True anomaly
265.8698°
Mean anomaly
265.8912°
Eccentric anomaly
265.8805°
Mean motion
3.30647 °/min
Orbital period
108.88 mins
BSTAR
-0.00020388
Loading maneuver chart data...
Computing Atmospheric mass density...
Loading historical data...
Loading historical data...
Loading historical data...
Loading historical data...
Loading historical data...
Loading historical data...
Loading historical data...

Documentation

Showing up to 5 results
|